Weather History for PPIZ - October, 2013

Change the Weather History Date:

Sunday, October 27, 2013

  Actual Average Record
Temperature  
Mean Temperature 30 °F -  
Max Temperature 35 °F 16 °F 35 °F (2013)
Min Temperature 26 °F 10 °F -9 °F (2005)
Degree Days  
Heating Degree Days 34    
Moisture  
Dew Point 29 °F    
Average Humidity 87    
Maximum Humidity 96    
Minimum Humidity 81    
Precipitation  
Precipitation 0.02 in - - ()
Sea Level Pressure  
Sea Level Pressure 29.76 in    
Wind  
Wind Speed 12 mph (SE)    
Max Wind Speed 21 mph    
Max Gust Speed -    
Visibility 10 miles    
Events Rain    
Averages and records for this station are not official NWS values.
T = Trace of Precipitation, MM = Missing Value Source: NWS Daily Summary

Daily Weather History Graph

Daily Weather History Graph

Search for Another Location

Airport or City:

Trip Planner

Search our weather history database for the weather conditions in past years. The results will help you decide how hot, cold, wet, or windy it might be!

Date:

Astronomy

Oct. 27, 2013 Rise Set
Actual Time 10:58 AM AKDT 6:11 PM AKDT
Civil Twilight 9:49 AM AKDT 7:20 PM AKDT
Nautical Twilight 8:37 AM AKDT 8:31 PM AKDT
Astronomical Twilight 7:28 AM AKDT 9:41 PM AKDT
Moon 12:29 AM AKDT (10/27) 5:40 PM AKDT (10/27)
Length of Visible Light 9h 31m
Length of Day
7h 13m
Last Quarter, 42% of the Moon is Illuminated
Oct 27
Last Quarter
Nov 3
New
Nov 9
First Quarter
Nov 17
Full
Nov 25
Last Quarter

Hourly Weather History & Observations

Time (AKDT) Temp. Windchill Dew Point Humidity Pressure Visibility Wind Dir Wind Speed Gust Speed Precip Events Conditions
12:56 AM 33.8 °F 23.9 °F 30.2 °F 87% 30.08 in 10.0 mi SE 15.0 mph - N/A   Mostly Cloudy
1:56 AM 34.9 °F 27.1 °F 32.0 °F 89% 30.07 in 10.0 mi ESE 10.4 mph - 0.00 in   Mostly Cloudy
2:56 AM 34.0 °F 25.5 °F 31.1 °F 89% 30.04 in 10.0 mi East 11.5 mph - 0.00 in   Mostly Cloudy
3:56 AM 32.0 °F 22.1 °F 28.0 °F 85% 30.01 in 10.0 mi East 13.8 mph - N/A   Clear
4:56 AM 29.1 °F 19.4 °F 26.1 °F 88% 29.99 in 10.0 mi East 11.5 mph - N/A   Clear
5:56 AM 26.1 °F 15.6 °F 23.0 °F 88% 29.96 in 10.0 mi East 11.5 mph - N/A   Clear
6:56 AM 28.0 °F 16.5 °F 23.0 °F 81% 29.91 in 10.0 mi East 15.0 mph - N/A   Clear
7:56 AM 28.0 °F 17.0 °F 24.1 °F 85% 29.86 in 10.0 mi ENE 13.8 mph - N/A   Clear
8:56 AM 28.0 °F 17.0 °F 25.2 °F 89% 29.83 in 10.0 mi ENE 13.8 mph - N/A   Clear
9:56 AM 29.1 °F 18.9 °F 25.2 °F 85% 29.78 in 10.0 mi ENE 12.7 mph - N/A   Clear
10:56 AM 29.1 °F 17.1 °F 26.1 °F 88% 29.74 in 10.0 mi ENE 17.3 mph - N/A   Clear
11:56 AM 34.0 °F 22.4 °F 30.0 °F 85% 29.71 in 9.0 mi SE 20.7 mph - 0.00 in   Scattered Clouds
12:56 PM 34.9 °F 26.6 °F 31.1 °F 86% 29.70 in 10.0 mi SSE 11.5 mph - 0.00 in   Partly Cloudy
1:56 PM 34.0 °F 26.0 °F 30.0 °F 85% 29.69 in 10.0 mi SSE 10.4 mph - N/A   Mostly Cloudy
2:56 PM 34.9 °F 27.1 °F 32.0 °F 89% 29.68 in 5.0 mi South 10.4 mph - 0.00 in Rain Light Rain
3:20 PM 35.6 °F 30.7 °F 32.0 °F 87% 29.67 in 10.0 mi SSW 5.8 mph - 0.01 in   Overcast
3:56 PM 34.0 °F 29.8 °F 32.0 °F 92% 29.67 in 10.0 mi SE 4.6 mph - 0.01 in   Partly Cloudy
4:56 PM 32.9 °F 27.5 °F 32.0 °F 96% 29.66 in 10.0 mi SE 5.8 mph - 0.00 in   Overcast
5:56 PM 34.9 °F 29.0 °F 31.1 °F 86% 29.65 in 10.0 mi ESE 6.9 mph - 0.00 in   Overcast
6:56 PM 33.8 °F 27.7 °F 30.2 °F 87% 29.62 in 10.0 mi ESE 6.9 mph - N/A   Overcast
7:56 PM 34.9 °F 26.2 °F 31.1 °F 86% 29.61 in 10.0 mi SSE 12.7 mph - 0.01 in   Overcast
8:56 PM 34.0 °F 25.0 °F 31.1 °F 89% 29.60 in 10.0 mi South 12.7 mph - N/A   Overcast
9:26 PM 33.8 °F 23.9 °F 30.2 °F 87% 29.58 in 10.0 mi South 15.0 mph - N/A   Mostly Cloudy
9:56 PM 33.8 °F 24.3 °F 30.2 °F 87% 29.58 in 10.0 mi South 13.8 mph - N/A   Mostly Cloudy
10:56 PM 32.9 °F 24.1 °F 30.0 °F 89% 29.60 in 10.0 mi South 11.5 mph - N/A   Scattered Clouds
11:56 PM 34.0 °F 25.5 °F 30.0 °F 85% 29.59 in 10.0 mi South 11.5 mph - N/A   Mostly Cloudy